Regional Weather Roundup
Issued by NWS Sioux Falls, SD

Home | Current Version | Previous Version | Graphics & Text | Print | Product List | Glossary Off
Versions: 1 2 3 4 5 6 7 8 9 10 11 12 13 14 15 16 17 18 19 20 21 22 23 24 25 26 27 28 29 30 31 32 33 34 35 36 37 38 39 40 41 42 43 44 45 46 47 48 49 50

405
ASUS43 KFSD 250010
RWRFSD

WEATHER ROUNDUP FOR SE SOUTH DAKOTA/SW MINNESOTA/NW IOWA
NATIONAL WEATHER SERVICE SIOUX FALLS SD
700 PM CDT SUN SEP 24 2017

NOTE: "FAIR" INDICATES FEW OR NO CLOUDS BELOW 12,000 FEET WITH NO
SIGNIFICANT WEATHER AND OR OBSTRUCTIONS TO VISIBILITY.


SDZ038>040-050-052>070-250100-
SOUTHEAST SOUTH DAKOTA

CITY           SKY/WX    TMP DP  RH WIND       PRES   REMARKS
BROOKINGS      CLOUDY    57  54  89 W10       29.97R
CHAMBERLAIN    CLOUDY    56  52  85 N10       30.03R
6HR MIN TEMP:  55; 6HR MAX TEMP:  58; 6HR PCP:  0.02;

HURON          CLOUDY    55  52  89 NW10      29.99R
6HR MIN TEMP:  55; 6HR MAX TEMP:  56; 6HR PCP:  0.10;

MADISON        CLOUDY    55  55 100 W9        29.98R
MITCHELL       CLOUDY    57  53  86 NW9       29.99R
6HR MIN TEMP:  57; 6HR MAX TEMP:  59; 6HR PCP:  0.08;

SIOUX FALLS    CLOUDY    59  57  93 NW10      29.95R
6HR MIN TEMP:  59; 6HR MAX TEMP:  80; 6HR PCP:  0.06;

WINNER         CLOUDY    55  49  80 N10       30.03R
YANKTON        CLOUDY    58  54  86 NW10      29.97R
$$

MNZ071-072-080-081-089-090-097-098-250100-
SOUTHWEST MINNESOTA

CITY           SKY/WX    TMP DP  RH WIND       PRES   REMARKS
FAIRMONT       MOCLDY    72  68  87 W12       29.92R
JACKSON        RAIN      70  64  83 CALM      29.92S
LUVERNE        CLOUDY    61  55  82 NW7       29.94F
MARSHALL       MOCLDY    63  57  82 NW10      29.94R
6HR MIN TEMP:  64; 6HR MAX TEMP:  84; 6HR PCP:  0.04;

MONTEVIDEO     PTCLDY    63  61  94 NW5       29.92R
PIPESTONE      MOCLDY    61  57  88 NW3       29.95F
REDWOOD FALLS  MOCLDY    70  63  78 W9        29.89S
TRACY          PTCLDY    67  61  83 NW8       29.92S
WORTHINGTON    CLOUDY    67  63  87 W7        29.94R
$$

IAZ001>003-012>014-020>022-031-032-NEZ013-014-SDZ071-250100-
NORTHWEST IOWA

CITY           SKY/WX    TMP DP  RH WIND       PRES   REMARKS
CHEROKEE       LGT RAIN  69  67  93 N5        29.92R
DENISON        CLOUDY    68  68 100 CALM      29.91S
ESTHERVILLE    MOCLDY    70  68  93 W6        29.90R
LE MARS        CLOUDY    66  61  82 VRB5      29.92S
ORANGE CITY    CLOUDY    66  63  88 NW8       29.93F
SHELDON        CLOUDY    68  63  83 W8        29.91F
SIOUX CITY     CLOUDY    65  61  87 NW9       29.93F
6HR MIN TEMP:  65; 6HR MAX TEMP:  86; 6HR PCP:  0.06;

SPENCER        CLOUDY    70  67  90 W5        29.91F
6HR MIN TEMP:  70; 6HR MAX TEMP:  89; 6HR PCP:  0.48;

STORM LAKE     CLOUDY    66  64  94 CALM      29.93R
$$

ABBREVIATIONS USED IN REMARKS
   TC - TEMPERATURE IN CELSIUS
  WCI - WIND CHILL INDEX
   HX - HEAT INDEX
  VSB - VISIBILITY





USA.gov is the U.S. government's official web portal to all federal, state and local government web resources and services.